TimeEDT,TemperatureF,Dew PointF,Humidity,Sea Level PressureIn,VisibilityMPH,Wind Direction,Wind SpeedMPH,Gust SpeedMPH,PrecipitationIn,Events,Conditions,WindDirDegrees,DateUTC
12:00 AM,66.2,64.4,94,29.98,0.8,Calm,Calm,-,N/A,,Mist,0,2013-08-23 04:00:00
12:38 AM,66.2,64.4,94,29.99,1.0,Calm,Calm,-,N/A,,Mostly Cloudy,0,2013-08-23 04:38:00
12:53 AM,64.9,64.0,97,29.98,1.0,Calm,Calm,-,N/A,,Scattered Clouds,0,2013-08-23 04:53:00
1:00 AM,64.4,64.4,100,29.99,1.2,Calm,Calm,-,N/A,,Scattered Clouds,0,2013-08-23 05:00:00
1:04 AM,64.4,64.4,100,29.99,0.8,Calm,Calm,-,N/A,,Mist,0,2013-08-23 05:04:00
1:53 AM,64.9,64.0,97,29.98,0.5,Calm,Calm,-,N/A,Fog,Fog,0,2013-08-23 05:53:00
2:21 AM,64.4,62.6,94,29.98,1.2,Calm,Calm,-,N/A,,Scattered Clouds,0,2013-08-23 06:21:00
2:27 AM,64.4,62.6,94,29.98,3.0,Calm,Calm,-,N/A,,Scattered Clouds,0,2013-08-23 06:27:00
2:36 AM,64.4,62.6,94,29.98,2.0,Calm,Calm,-,N/A,,Partly Cloudy,0,2013-08-23 06:36:00
2:48 AM,64.4,62.6,94,29.98,4.0,Calm,Calm,-,N/A,,Partly Cloudy,0,2013-08-23 06:48:00
2:53 AM,64.0,63.0,96,29.97,5.0,Calm,Calm,-,N/A,,Partly Cloudy,0,2013-08-23 06:53:00
3:53 AM,63.0,62.1,97,29.96,3.0,Calm,Calm,-,N/A,,Clear,0,2013-08-23 07:53:00
4:03 AM,62.6,62.6,100,29.97,2.5,Calm,Calm,-,N/A,,Clear,0,2013-08-23 08:03:00
4:25 AM,62.6,62.6,100,29.97,3.0,Calm,Calm,-,N/A,,Clear,0,2013-08-23 08:25:00
4:50 AM,62.6,62.6,100,29.98,2.5,Calm,Calm,-,N/A,,Clear,0,2013-08-23 08:50:00
4:53 AM,63.0,62.1,97,29.97,2.5,Calm,Calm,-,N/A,,Clear,0,2013-08-23 08:53:00
5:00 AM,62.6,62.6,100,29.98,3.0,Calm,Calm,-,N/A,,Clear,0,2013-08-23 09:00:00
5:14 AM,62.6,62.6,100,29.98,2.5,Calm,Calm,-,N/A,,Partly Cloudy,0,2013-08-23 09:14:00
5:22 AM,62.6,62.6,100,29.98,1.8,Calm,Calm,-,N/A,,Mostly Cloudy,0,2013-08-23 09:22:00
5:33 AM,62.6,62.6,100,29.99,2.5,Calm,Calm,-,N/A,,Mostly Cloudy,0,2013-08-23 09:33:00
5:40 AM,62.6,62.6,100,29.99,3.0,Calm,Calm,-,N/A,,Mostly Cloudy,0,2013-08-23 09:40:00
5:53 AM,63.0,62.1,97,29.99,3.0,Calm,Calm,-,N/A,,Scattered Clouds,0,2013-08-23 09:53:00
6:15 AM,64.4,62.6,94,30.00,4.0,Calm,Calm,-,N/A,,Mostly Cloudy,0,2013-08-23 10:15:00
6:53 AM,64.0,63.0,96,30.00,2.5,Calm,Calm,-,N/A,,Scattered Clouds,0,2013-08-23 10:53:00
7:26 AM,64.4,62.6,94,30.02,3.0,Calm,Calm,-,N/A,,Clear,0,2013-08-23 11:26:00
7:42 AM,64.4,64.4,100,30.03,3.0,Calm,Calm,-,N/A,,Partly Cloudy,0,2013-08-23 11:42:00
7:53 AM,66.0,64.0,93,30.03,3.0,Calm,Calm,-,N/A,,Partly Cloudy,0,2013-08-23 11:53:00
8:53 AM,68.0,66.0,93,30.04,5.0,Calm,Calm,-,N/A,,Partly Cloudy,0,2013-08-23 12:53:00
9:53 AM,70.0,66.9,90,30.04,6.0,Calm,Calm,-,N/A,,Clear,0,2013-08-23 13:53:00
10:53 AM,72.0,66.0,81,30.07,8.0,NNW,3.5,-,N/A,,Clear,330,2013-08-23 14:53:00
11:40 AM,73.4,64.4,73,30.09,9.0,NNW,3.5,-,N/A,,Mostly Cloudy,330,2013-08-23 15:40:00
11:53 AM,72.0,64.9,78,30.08,10.0,NNW,4.6,-,N/A,,Scattered Clouds,330,2013-08-23 15:53:00
12:53 PM,73.0,63.0,71,30.07,10.0,Calm,Calm,-,N/A,,Clear,0,2013-08-23 16:53:00
1:53 PM,75.0,63.0,66,30.07,10.0,Calm,Calm,-,N/A,,Clear,0,2013-08-23 17:53:00
2:53 PM,78.1,63.0,60,30.05,10.0,Calm,Calm,-,N/A,,Clear,0,2013-08-23 18:53:00
3:53 PM,79.0,59.0,50,30.04,10.0,NNW,4.6,-,N/A,,Partly Cloudy,340,2013-08-23 19:53:00
4:53 PM,80.1,57.9,47,30.04,10.0,Calm,Calm,-,N/A,,Partly Cloudy,0,2013-08-23 20:53:00
5:53 PM,79.0,57.9,48,30.04,10.0,NNW,3.5,-,N/A,,Mostly Cloudy,340,2013-08-23 21:53:00
6:53 PM,78.1,55.9,46,30.04,10.0,Variable,5.8,-,N/A,,Mostly Cloudy,0,2013-08-23 22:53:00
7:53 PM,71.1,55.9,59,30.06,10.0,North,4.6,-,N/A,,Clear,360,2013-08-23 23:53:00
8:53 PM,64.9,57.9,78,30.10,10.0,North,4.6,-,N/A,,Clear,10,2013-08-24 00:53:00
9:53 PM,63.0,57.9,84,30.13,10.0,NNW,3.5,-,N/A,,Clear,330,2013-08-24 01:53:00
10:53 PM,60.1,57.0,90,30.14,10.0,Calm,Calm,-,N/A,,Clear,0,2013-08-24 02:53:00
11:53 PM,59.0,55.9,90,30.17,10.0,North,3.5,-,N/A,,Clear,350,2013-08-24 03:53:00